Location: Berg
(47.2344°N, 9.5296°E)
Time: 22:59:20
(UTC+00:00)

IRS-1C Rocket - Pass Details

Date: 24 January 2021
Orbit: 801 x 805 km, 99.0° (Epoch: 04 March)

Event Time Altitude Azimuth Distance (km) Brightness Sun altitude
Rises 17:44:42 0° 166° (SSE) 3,298 7.3 -15.6°
Reaches altitude 10° 17:47:01 10° 167° (SSE) 2,372 6.5 -16.0°
Maximum altitude 17:52:16 81° 254° (WSW) 816 4.2 -16.9°
Drops below altitude 10° 17:57:34 10° 343° (NNW) 2,389 6.6 -17.7°
Sets 17:59:54 0° 345° (NNW) 3,324 7.4 -18.1°
